Regional Weather Roundup
Issued by NWS

Home | Current Version | Previous Version | Graphics & Text | Print | Product List | Glossary On
Versions: 1 2 3 4 5 6 7 8 9 10 11 12 13 14 15 16 17 18 19 20 21 22 23 24 25 26 27 28 29 30 31 32 33 34 35 36 37 38 39 40 41 42 43 44 45 46 47 48 49 50
042
ASUS43 KDMX 240401
RWRIA

WEATHER ROUNDUP FOR IOWA
NATIONAL WEATHER SERVICE DES MOINES IA
1100 PM CDT SAT SEP 23 2017

NOTE: "FAIR" INDICATES FEW OR NO CLOUDS BELOW 12,000 FEET WITH NO
SIGNIFICANT WEATHER AND/OR OBSTRUCTIONS TO VISIBILITY.

* - THESE STATIONS ARE NOT NWS STATIONS...THUS NOT UNDER NWS
QUALITY CONTROL.  THEY ALSO DO NOT REPORT WEATHER SUCH
AS PRECIPITATION OR FOG.

IAZ001>003-012>014-020>022-031>034-043>046-240500-
   NORTHWEST IOWA

CITY           SKY/WX    TMP DP  RH WIND       PRES   REMARKS
CARROLL *      CLEAR     70  64  83 S5        29.94S
DENISON *      CLEAR     73  64  73 S12G17    29.94S
LE MARS *      CLEAR     73  64  73 W12       29.91R
ORANGE CITY *  CLEAR     75  66  73 S7        29.91R
SHELDON *      PTCLDY    75  64  69 S10G17    29.89S
SIOUX CITY     PTCLDY    75  65  70 SE7       29.89R
SPENCER        PTCLDY    72  63  73 S9        29.92S
STORM LAKE *   PTCLDY    72  63  73 S8        29.94R
$$

IAZ055>058-069>071-079>083-090>094-240500-
   SOUTHWEST IOWA

CITY           SKY/WX    TMP DP  RH WIND       PRES   REMARKS
ATLANTIC *     CLEAR     73  64  73 S6        29.95R
AUDUBON *      CLEAR     66  63  88 CALM      29.97R
CLARINDA *     CLEAR     68  66  94 CALM      29.97S
COUNCIL BLFS * PTCLDY    77  68  73 SE12      29.92S
CRESTON *      CLEAR     72  64  78 SE7       29.98S
HARLAN  *      CLEAR     73  64  73 S6        29.97S
LAMONI         CLEAR     77  65  66 S6        29.97S
RED OAK *      CLEAR     73  66  78 CALM      29.94S
SHENANDOAH *   CLOUDY    73  66  78 SE6       29.94S
$$

IAZ047>049-059>061-072>074-084-240500-
   CENTRAL IOWA

CITY           SKY/WX    TMP DP  RH WIND       PRES   REMARKS
AMES           CLEAR     70  66  87 S3        29.96S
ANKENY *       CLEAR     73  66  78 CALM      29.97R
BOONE *        CLEAR     73  64  73 SE6       29.96R
CHARITON *     CLEAR     73  64  73 SE8       29.97S
DES MOINES     PTCLDY    77  65  66 SE7       29.95S
GRINNELL*      CLEAR     73  62  70 SE6       30.00S
KNOXVILLE *    CLEAR     77  63  61 SE7       29.96S
MARSHALLTOWN   CLEAR     71  64  78 SE7       29.97S
NEWTON *       CLEAR     75  63  64 SE8       29.98S
PELLA *        CLEAR     77  62  58 SE5       29.98S
PERRY *          N/A     73  67  80 S6        29.96R
$$

IAZ004>006-015-016-023>025-035-036-240500-
   NORTH CENTRAL IOWA

CITY           SKY/WX    TMP DP  RH WIND       PRES   REMARKS
ALGONA *       PTCLDY    75  64  69 S10       29.95R
CLARION *      CLOUDY    73  66  78 SE7       29.96S
ESTHERVILLE    PTCLDY    72  64  76 S9        29.93R
FORT DODGE *   PTCLDY    79  65  62 S6        29.95S HX  81
MASON CITY     CLEAR     70  62  76 S6        29.98S
FOREST CITY *    N/A     72  63  73 S7        29.97R
WEBSTER CITY * CLEAR     75  64  69 SE7       29.94S
IOWA FALLS *     N/A     71  64  79 SE7       29.99S
$$

IAZ007>011-017>019-026>030-037>042-050>054-066-240500-
   NORTHEAST IOWA

CITY           SKY/WX    TMP DP  RH WIND       PRES   REMARKS
CEDAR RAPIDS   CLEAR     74  64  71 SE5       30.00S
CHARLES CITY * CLEAR     73  63  68 SE8       29.99S
CLINTON *      CLEAR    N/A N/A N/A SE5       30.03R
DECORAH *      CLEAR     73  64  73 SE7       30.00S
DUBUQUE        CLEAR     71  64  78 SE7       30.04S
MONTICELLO *   CLEAR     68  63  83 S3        30.01S
OELWEIN *      CLEAR     72  63  73 SE7       30.01S
WATERLOO       CLEAR     75  61  61 SE7       29.97S
$$

IAZ064-065-067-068-078-240500-
   EAST CENTRAL IOWA

CITY           SKY/WX    TMP DP  RH WIND       PRES   REMARKS
DAVENPORT      CLEAR     69  65  86 SE3       30.04R
IOWA CITY      CLEAR     73  65  75 CALM      30.02R
MUSCATINE *    CLEAR     70  66  88 CALM      30.01S
QUAD CITIES    CLEAR     74  64  71 E3        30.01R
$$

IAZ062-063-075>077-085>089-095>099-240500-
   SOUTHEAST IOWA

CITY           SKY/WX    TMP DP  RH WIND       PRES   REMARKS
BURLINGTON     CLEAR     74  63  68 SE5       30.01R
FAIRFIELD *    CLEAR     73  63  68 SE7       30.00S
FORT MADISON * CLEAR     75  63  64 S5        30.02R
KEOKUK *       CLEAR     77  61  57 SE3       30.00S
OSKALOOSA *      N/A     72  63  72 SE7       29.99S
OTTUMWA        CLEAR     76  63  64 SE9       29.98F
WASHINGTON *   CLEAR     72  64  78 SE7       30.02R
$$

ABBREVIATIONS USED IN REMARKS
   TC - TEMPERATURES IN CELSIUS
  WCI - WIND CHILL INDEX
   HX - HEAT INDEX
  VSB - VISIBILITY
$$





USA.gov is the U.S. government's official web portal to all federal, state and local government web resources and services.